Location: Unspecified
(49.8670°N, 0.0000°E)
Time: 02:35:15
(UTC+00:00)

Vanguard 1 - Pass Details

Date: 29 June 2019
Orbit: 653 x 3830 km, 34.3° (Epoch: 17 July)

Event Time Altitude Azimuth Distance (km) Brightness Sun altitude
Rises 01:01:05 0° 231° (SW) 7,965 14.2 -15.8°
Reaches altitude 10° 01:07:11 10° 226° (SW) 6,880 13.8 -15.5°
Maximum altitude 01:26:28 40° 167° (SSE) 3,975 12.7 -14.6°
Drops below altitude 10° 01:39:22 10° 104° (ESE) 4,709 13.6 -13.8°
Sets 01:42:36 0° 97° (E) 5,339 14.1 -13.6°
